This demonstration page uses our WeatherBlox Daily Observations layout. Learn more.

Left ArrowRight Arrow

44.8408, -93.29828

Hourly Observations for February 19, 2019

Temp ( °F °C ) Dew Point ( °F °C ) Humidity (%) Winds ( mph kmh ) Pressure ( in mb ) Visibility ( mi km ) Precip ( " mm )
12:53 am 00:53 Clear 4 -15.6 1 -17.2 88 88 SW 5 7 30.60 1036 7 11 0.00 0.00
1:53 am 01:53 Clear 3 -16.1 0 -17.8 87 87 SW 7 11 30.61 1037 7 11 0.00 0.00
2:53 am 02:53 Clear 2 -16.7 -1 -18.3 88 88 SW 5 7 30.62 1037 9 14 0.00 0.00
3:53 am 03:53 Clear 0 -17.8 -3 -19.4 87 87 WSW 7 11 30.62 1037 7 11 0.00 0.00
4:53 am 04:53 Clear 0 -17.8 -3 -19.4 87 87 SW 6 9 30.62 1037 7 11 0.00 0.00
5:53 am 05:53 Clear -1 -18.3 -5 -20.6 82 82 SW 6 9 30.63 1037 8 13 0.00 0.00
6:53 am 06:53 Clear -2 -18.9 -5 -20.6 87 87 WSW 5 7 30.63 1037 9 14 0.00 0.00
7:53 am 07:53 Sunny -2 -18.9 -4 -20 91 91 SW 6 9 30.63 1037 7 11 0.00 0.00
8:53 am 08:53 Sunny 0 -17.8 -2 -18.9 91 91 Calm 30.64 1038 8 13 0.00 0.00
9:53 am 09:53 Sunny 2 -16.7 -1 -18.3 88 88 SE 3 6 30.63 1037 8 13 0.00 0.00
10:53 am 10:53 Sunny 7 -13.9 1 -17.2 76 76 SE 5 7 30.62 1037 8 13 0.00 0.00
11:53 am 11:53 Sunny 13 -10.6 3 -16.1 64 64 VRB 5 7 30.61 1037 10 16 0.00 0.00
12:53 pm 12:53 Sunny 16 -8.9 4 -15.6 59 59 Calm 30.58 1035 10 16 0.00 0.00
1:53 pm 13:53 Sunny 20 -6.7 6 -14.4 55 55 Calm 30.53 1034 10 16 0.00 0.00
2:53 pm 14:53 Sunny 21 -6.1 6 -14.4 52 52 Calm 30.49 1033 10 16 0.00 0.00
3:53 pm 15:53 Sunny 22 -5.6 7 -13.9 52 52 Calm 30.47 1032 10 16 0.00 0.00
4:53 pm 16:53 Mostly Sunny 19 -7.2 7 -13.9 59 59 SE 8 13 30.45 1031 10 16 0.00 0.00
5:53 pm 17:53 Partly Cloudy 17 -8.3 6 -14.4 62 62 SE 9 15 30.45 1031 10 16 0.00 0.00
6:53 pm 18:53 Cloudy 17 -8.3 6 -14.4 62 62 S 9 15 30.48 1032 10 16 0.00 0.00
7:53 pm 19:53 Cloudy 15 -9.4 6 -14.4 67 67 SSE 5 7 30.45 1031 10 16 0.00 0.00
8:53 pm 20:53 Cloudy 15 -9.4 7 -13.9 70 70 Calm 30.41 1030 10 16 0.00 0.00
9:53 pm 21:53 Cloudy 15 -9.4 7 -13.9 70 70 ESE 6 9 30.37 1028 10 16 0.00 0.00
10:46 pm 22:46 Cloudy 15 -9.4 7 -13.9 70 70 E 10 17 30.34 1027 10 16 0.00 0.00
10:53 pm 22:53 Cloudy 15 -9.4 7 -13.9 70 70 E 8 13 30.31 1026 10 16 0.00 0.00
11:53 pm 23:53 Cloudy 16 -8.9 7 -13.9 67 67 E 12 19 30.25 1024 10 16 0.00 0.00

Powered by AerisWeather